When you browse on this site, cookies collect data to enhance your experience and personalize the content and advertising you see.
Visit our Privacy Policy to learn more. By continuing to use the site, you agree to this use of cookies and data.
  • In Hungary
  • List of Countries
  • For 7 days
  • Water Temperature
  • Satellite Maps
  • Weather Map
  • News
  • Weather Widgets
  • user-avatar
    Login

    Hourly Weather Livry-Gargan

    Today, 18 March, Monday

    Time Temperature Precipitation Wind Pressure Humidity
    00:00 +4°C° 0 mm 4 mps 757 mmHg 75%
    01:00 +4°C° 0 mm 4 mps 757 mmHg 77%
    02:00 +4°C° 0 mm 4 mps 758 mmHg 80%
    03:00 +3°C° 0 mm 4 mps 758 mmHg 82%
    04:00 +3°C° 0 mm 3 mps 758 mmHg 84%
    05:00 +3°C° 0 mm 3 mps 759 mmHg 86%
    06:00 +4°C° 0 mm 2 mps 759 mmHg 88%
    07:00 +5°C° 0 mm 2 mps 760 mmHg 83%
    08:00 +5°C° 0 mm 3 mps 760 mmHg 78%
    09:00 +8°C° 0 mm 3 mps 761 mmHg 73%
    10:00 +9°C° 0.1 mm 3 mps 761 mmHg 66%
    11:00 +10°C° 0.1 mm 3 mps 761 mmHg 60%
    12:00 +11°C° 0.1 mm 4 mps 761 mmHg 53%
    13:00 +11°C° 0.1 mm 4 mps 761 mmHg 51%
    14:00 +11°C° 0.1 mm 4 mps 761 mmHg 50%
    15:00 +11°C° 0.1 mm 4 mps 761 mmHg 48%
    16:00 +10°C° 0 mm 4 mps 761 mmHg 52%
    17:00 +9°C° 0 mm 3 mps 761 mmHg 56%
    18:00 +9°C° 0 mm 3 mps 762 mmHg 60%
    19:00 +8°C° 0 mm 2 mps 762 mmHg 64%
    20:00 +7°C° 0 mm 2 mps 763 mmHg 68%
    21:00 +7°C° 0 mm 2 mps 763 mmHg 72%
    22:00 +7°C° 0 mm 1 mps 763 mmHg 75%
    23:00 +7°C° 0 mm 1 mps 764 mmHg 78%

    Tomorrow, 19 March, Tuesday

    Time Temperature Precipitation Wind Pressure Humidity
    00:00 +6°C° 0 mm 1 mps 764 mmHg 81%
    01:00 +6°C° 0 mm 1 mps 764 mmHg 82%
    02:00 +5°C° 0 mm 0 mps 764 mmHg 83%
    03:00 +4°C° 0 mm 0 mps 764 mmHg 84%
    04:00 +4°C° 0 mm 0 mps 764 mmHg 85%
    05:00 +4°C° 0 mm 0 mps 765 mmHg 85%
    06:00 +4°C° 0 mm 0 mps 765 mmHg 85%
    07:00 +5°C° 0 mm 0 mps 766 mmHg 79%
    08:00 +7°C° 0 mm 0 mps 766 mmHg 73%
    09:00 +8°C° 0 mm 0 mps 766 mmHg 67%
    10:00 +9°C° 0 mm 0 mps 766 mmHg 61%
    11:00 +11°C° 0 mm 0 mps 767 mmHg 55%
    12:00 +12°C° 0 mm 0 mps 767 mmHg 49%
    13:00 +12°C° 0 mm 0 mps 767 mmHg 47%
    14:00 +13°C° 0 mm 0 mps 766 mmHg 45%
    15:00 +13°C° 0 mm 0 mps 766 mmHg 43%
    16:00 +12°C° 0 mm 0 mps 766 mmHg 45%
    17:00 +11°C° 0 mm 0 mps 767 mmHg 48%
    18:00 +10°C° 0 mm 0 mps 767 mmHg 51%
    19:00 +10°C° 0 mm 0 mps 767 mmHg 53%
    20:00 +10°C° 0 mm 1 mps 768 mmHg 55%
    21:00 +10°C° 0 mm 1 mps 769 mmHg 57%
    22:00 +9°C° 0 mm 1 mps 769 mmHg 58%
    23:00 +9°C° 0 mm 1 mps 769 mmHg 59%

    Day after tomorrow, 20 March, Wednesday

    Time Temperature Precipitation Wind Pressure Humidity
    00:00 +9°C° 0 mm 1 mps 769 mmHg 60%
    01:00 +8°C° 0 mm 1 mps 769 mmHg 62%
    02:00 +8°C° 0 mm 1 mps 769 mmHg 63%
    03:00 +7°C° 0 mm 1 mps 769 mmHg 64%
    04:00 +7°C° 0 mm 1 mps 770 mmHg 64%
    05:00 +7°C° 0 mm 1 mps 770 mmHg 64%
    06:00 +7°C° 0 mm 1 mps 770 mmHg 65%
    07:00 +8°C° 0 mm 1 mps 770 mmHg 61%
    08:00 +10°C° 0 mm 1 mps 771 mmHg 58%
    09:00 +11°C° 0 mm 1 mps 771 mmHg 54%
    10:00 +12°C° 0 mm 1 mps 771 mmHg 51%
    11:00 +14°C° 0 mm 1 mps 771 mmHg 48%
    12:00 +15°C° 0 mm 1 mps 771 mmHg 45%
    13:00 +15°C° 0 mm 1 mps 771 mmHg 44%
    14:00 +16°C° 0 mm 1 mps 770 mmHg 43%
    15:00 +16°C° 0 mm 1 mps 770 mmHg 42%
    16:00 +15°C° 0 mm 1 mps 770 mmHg 46%
    17:00 +14°C° 0 mm 1 mps 770 mmHg 50%
    18:00 +13°C° 0 mm 2 mps 770 mmHg 54%
    19:00 +12°C° 0 mm 2 mps 770 mmHg 57%
    20:00 +12°C° 0 mm 2 mps 771 mmHg 60%
    21:00 +10°C° 0 mm 2 mps 771 mmHg 63%
    22:00 +10°C° 0 mm 1 mps 771 mmHg 64%
    23:00 +10°C° 0 mm 1 mps 771 mmHg 65%

    21 March, Thursday

    Time Temperature Precipitation Wind Pressure Humidity
    00:00 +10°C° 0 mm 1 mps 771 mmHg 67%
    01:00 +9°C° 0 mm 1 mps 771 mmHg 68%
    02:00 +9°C° 0 mm 1 mps 771 mmHg 70%
    03:00 +8°C° 0 mm 1 mps 770 mmHg 72%
    04:00 +8°C° 0 mm 1 mps 770 mmHg 73%
    05:00 +8°C° 0 mm 1 mps 770 mmHg 75%
    06:00 +8°C° 0 mm 1 mps 770 mmHg 77%
    07:00 +9°C° 0 mm 1 mps 770 mmHg 71%
    08:00 +9°C° 0 mm 2 mps 770 mmHg 64%
    09:00 +12°C° 0 mm 2 mps 770 mmHg 58%
    10:00 +13°C° 0 mm 2 mps 770 mmHg 51%
    11:00 +14°C° 0 mm 2 mps 770 mmHg 45%
    12:00 +16°C° 0 mm 2 mps 770 mmHg 38%
    13:00 +16°C° 0 mm 2 mps 769 mmHg 37%
    14:00 +17°C° 0 mm 2 mps 769 mmHg 35%
    15:00 +17°C° 0 mm 2 mps 769 mmHg 34%
    16:00 +16°C° 0 mm 2 mps 768 mmHg 39%
    17:00 +15°C° 0 mm 2 mps 768 mmHg 43%
    18:00 +14°C° 0 mm 2 mps 768 mmHg 48%
    19:00 +13°C° 0 mm 2 mps 768 mmHg 50%
    20:00 +12°C° 0 mm 1 mps 769 mmHg 53%
    21:00 +11°C° 0 mm 1 mps 769 mmHg 55%
    22:00 +11°C° 0 mm 1 mps 769 mmHg 56%
    23:00 +10°C° 0 mm 1 mps 769 mmHg 58%

    22 March, Friday

    Time Temperature Precipitation Wind Pressure Humidity
    00:00 +10°C° 0 mm 1 mps 769 mmHg 59%
    01:00 +10°C° 0 mm 1 mps 769 mmHg 62%
    02:00 +9°C° 0 mm 1 mps 769 mmHg 65%
    03:00 +9°C° 0 mm 1 mps 769 mmHg 69%
    04:00 +9°C° 0 mm 1 mps 769 mmHg 74%
    05:00 +8°C° 0 mm 1 mps 769 mmHg 78%
    06:00 +8°C° 0 mm 1 mps 769 mmHg 83%
    07:00 +9°C° 0 mm 2 mps 769 mmHg 79%
    08:00 +10°C° 0 mm 2 mps 770 mmHg 75%
    09:00 +12°C° 0 mm 2 mps 770 mmHg 71%
    10:00 +14°C° 0 mm 2 mps 770 mmHg 65%
    11:00 +15°C° 0 mm 2 mps 769 mmHg 59%
    12:00 +17°C° 0 mm 2 mps 769 mmHg 53%
    13:00 +17°C° 0 mm 2 mps 769 mmHg 51%
    14:00 +18°C° 0 mm 2 mps 768 mmHg 49%
    15:00 +18°C° 0 mm 2 mps 768 mmHg 47%
    16:00 +17°C° 0 mm 2 mps 768 mmHg 52%
    17:00 +16°C° 0 mm 1 mps 768 mmHg 56%
    18:00 +15°C° 0 mm 1 mps 768 mmHg 61%
    19:00 +14°C° 0 mm 1 mps 768 mmHg 64%
    20:00 +14°C° 0 mm 1 mps 768 mmHg 68%
    21:00 +13°C° 0 mm 1 mps 768 mmHg 71%
    22:00 +12°C° 0 mm 1 mps 768 mmHg 73%
    23:00 +12°C° 0 mm 1 mps 767 mmHg 75%

    23 March, Saturday

    Time Temperature Precipitation Wind Pressure Humidity
    00:00 +11°C° 0 mm 1 mps 767 mmHg 77%
    01:00 +11°C° 0 mm 1 mps 767 mmHg 78%
    02:00 +11°C° 0 mm 1 mps 767 mmHg 80%
    03:00 +10°C° 0 mm 1 mps 766 mmHg 81%
    04:00 +10°C° 0 mm 1 mps 766 mmHg 81%
    05:00 +9°C° 0 mm 1 mps 766 mmHg 82%
    06:00 +9°C° 0 mm 1 mps 766 mmHg 82%
    07:00 +11°C° 0 mm 1 mps 766 mmHg 76%
    08:00 +12°C° 0 mm 1 mps 766 mmHg 69%
    09:00 +14°C° 0 mm 1 mps 766 mmHg 63%
    10:00 +15°C° 0 mm 1 mps 766 mmHg 58%
    11:00 +18°C° 0 mm 1 mps 766 mmHg 52%
    12:00 +19°C° 0 mm 1 mps 766 mmHg 46%
    13:00 +20°C° 0 mm 1 mps 765 mmHg 44%
    14:00 +20°C° 0 mm 1 mps 765 mmHg 42%
    15:00 +21°C° 0 mm 1 mps 764 mmHg 40%
    16:00 +19°C° 0 mm 1 mps 764 mmHg 44%
    17:00 +16°C° 0 mm 0 mps 764 mmHg 47%
    18:00 +15°C° 0 mm 0 mps 764 mmHg 51%
    19:00 +15°C° 0 mm 0 mps 765 mmHg 53%
    20:00 +14°C° 0 mm 0 mps 765 mmHg 56%
    21:00 +13°C° 0 mm 0 mps 765 mmHg 58%
    22:00 +13°C° 0 mm 0 mps 766 mmHg 62%
    23:00 +13°C° 0 mm 1 mps 766 mmHg 67%
    Show more